Location: Dortmund
(51.5019°N, 7.6520°E)
Time: 18:02:01
(UTC+02:00)

ISS - Pass Details

Date: 26 March 2019
Orbit: 408 x 410 km, 51.6° (Epoch: 27 April)

Event Time Altitude Azimuth Distance (km) Brightness Sun altitude
Rises 19:21:15 0° 231° (SW) 2,330 0.7 -5.3°
Reaches altitude 10° 19:23:24 10° 224° (SW) 1,471 -0.5 -5.7°
Maximum altitude 19:26:30 39° 154° (SSE) 634 -3.1 -6.1°
Drops below altitude 10° 19:29:37 10° 84° (E) 1,476 -1.6 -6.6°
Enters shadow 19:30:05 - 81° (E) 1,661 -1.3 -6.7°
